AEE86N LGAV-LOWW

Flight info

Callsign AEE86N
Flight time N/A
Altitude 36000
Route KOR UL613 YNN UL604 DIMIS DCT RETRA DCT GACMO DCT LOPKU DCT BOSNA DCT OBUTI OBUTI2W
Aircraft A320/M-SDE3FGHIRWY/LB1

Departure

Time 2026-05-04 08:10
Airport Athens Eleftherios Venizelos International Airport (LGAV)

Arrival

Time N/A
Airport Vienna International Airport (LOWW)
Time Latitude Longitude Altitude Speed Heading
2026-05-04 07:39 37.94090 23.95417 273 ft 0 kts 218°
2026-05-04 08:02 37.94170 23.95482 300 ft 4 kts 169°
2026-05-04 08:02 37.94186 23.95467 301 ft 4 kts 127°
2026-05-04 08:02 37.94191 23.95458 300 ft 0 kts 127°
2026-05-04 08:05 37.94190 23.95459 300 ft 1 kts 127°
2026-05-04 08:05 37.94157 23.95515 301 ft 15 kts 127°
2026-05-04 08:05 37.94082 23.95627 302 ft 18 kts 145°
2026-05-04 08:06 37.93968 23.95578 302 ft 19 kts 216°
2026-05-04 08:06 37.93868 23.95486 299 ft 16 kts 216°
2026-05-04 08:06 37.93776 23.95400 297 ft 17 kts 216°
2026-05-04 08:06 37.93672 23.95302 300 ft 23 kts 217°
2026-05-04 08:08 37.92612 23.94295 305 ft 20 kts 212°
2026-05-04 08:08 37.92531 23.94339 306 ft 13 kts 128°
2026-05-04 08:10 37.96091 23.97889 1775 ft 158 kts 34°
2026-05-04 08:11 37.97011 23.98765 2073 ft 175 kts 34°
2026-05-04 08:11 37.99157 24.00817 2702 ft 215 kts 34°
2026-05-04 08:11 38.00412 24.02019 3189 ft 234 kts 35°
2026-05-04 08:12 38.01725 24.03288 3966 ft 239 kts 35°
2026-05-04 08:12 38.03052 24.04572 4842 ft 241 kts 34°
2026-05-04 08:12 38.04446 24.05800 5507 ft 250 kts 22°
2026-05-04 08:12 38.06148 24.06261 6213 ft 253 kts 355°
2026-05-04 08:13 38.07830 24.05653 7033 ft 255 kts 329°
2026-05-04 08:13 38.09092 24.04071 7837 ft 261 kts 302°
2026-05-04 08:13 38.09766 24.01898 8662 ft 266 kts 292°
2026-05-04 08:13 38.10357 23.99661 9484 ft 268 kts 292°
2026-05-04 08:14 38.10952 23.97405 10265 ft 271 kts 292°
2026-05-04 08:14 38.11574 23.95071 10625 ft 290 kts 292°
2026-05-04 08:14 38.12251 23.92557 10798 ft 312 kts 292°
2026-05-04 08:16 38.17553 23.72690 14602 ft 354 kts 292°
2026-05-04 08:16 38.18346 23.69707 15166 ft 357 kts 291°
2026-05-04 08:16 38.19143 23.66701 15738 ft 360 kts 291°
2026-05-04 08:17 38.19941 23.63680 16315 ft 362 kts 291°
2026-05-04 08:17 38.20744 23.60633 16857 ft 364 kts 292°
2026-05-04 08:17 38.21553 23.57566 17421 ft 367 kts 292°
2026-05-04 08:17 38.22364 23.54485 17997 ft 369 kts 292°
2026-05-04 08:19 38.28135 23.32477 21815 ft 376 kts 294°
2026-05-04 08:19 38.28951 23.29354 22290 ft 377 kts 294°
2026-05-04 08:20 38.29780 23.26183 22771 ft 379 kts 294°
2026-05-04 08:20 38.30611 23.22994 23256 ft 380 kts 294°
2026-05-04 08:20 38.31443 23.19794 23729 ft 381 kts 294°
2026-05-04 08:20 38.32273 23.16602 24125 ft 383 kts 294°
2026-05-04 08:21 38.33110 23.13380 24502 ft 384 kts 294°
2026-05-04 08:21 38.33952 23.10147 24840 ft 386 kts 295°
2026-05-04 08:21 38.34791 23.06902 25250 ft 386 kts 295°
2026-05-04 08:21 38.35630 23.03641 25599 ft 387 kts 294°
2026-05-04 08:22 38.36470 23.00375 25953 ft 389 kts 295°
2026-05-04 08:22 38.37314 22.97099 26316 ft 391 kts 295°
2026-05-04 08:24 38.43287 22.73823 29168 ft 395 kts 294°
2026-05-04 08:24 38.44132 22.70501 29671 ft 393 kts 294°
2026-05-04 08:24 38.44975 22.67180 30167 ft 392 kts 294°
2026-05-04 08:24 38.45801 22.63922 30529 ft 392 kts 294°
2026-05-04 08:25 38.46643 22.60611 30952 ft 391 kts 294°
2026-05-04 08:25 38.47478 22.57322 31414 ft 389 kts 294°
2026-05-04 08:25 38.48309 22.54046 31826 ft 388 kts 294°
2026-05-04 08:25 38.49137 22.50773 32154 ft 387 kts 294°
2026-05-04 08:26 38.49964 22.47504 32528 ft 386 kts 294°
2026-05-04 08:27 38.55667 22.24823 35097 ft 383 kts 293°
2026-05-04 08:28 38.56519 22.21610 35357 ft 380 kts 298°
2026-05-04 08:28 38.57748 22.18655 35625 ft 374 kts 308°
2026-05-04 08:28 38.59367 22.16082 35840 ft 371 kts 317°
2026-05-04 08:28 38.61247 22.13830 36029 ft 371 kts 319°
2026-05-04 08:29 38.65054 22.09328 36169 ft 377 kts 319°
2026-05-04 08:31 38.80698 21.90703 36184 ft 387 kts 319°
2026-05-04 08:33 38.96479 21.71806 36176 ft 389 kts 319°
2026-05-04 08:35 39.12244 21.52803 36198 ft 389 kts 319°
2026-05-04 08:35 39.16189 21.48038 36195 ft 389 kts 319°
2026-05-04 08:37 39.29972 21.31301 36071 ft 389 kts 318°
2026-05-04 08:37 39.31916 21.28900 35690 ft 384 kts 318°
2026-05-04 08:38 39.33829 21.26523 35406 ft 377 kts 318°
2026-05-04 08:38 39.35672 21.24213 35634 ft 364 kts 318°
2026-05-04 08:38 39.37484 21.21943 35451 ft 371 kts 318°
2026-05-04 08:40 39.50501 21.05620 36186 ft 374 kts 318°
2026-05-04 08:40 39.52378 21.03281 36185 ft 375 kts 318°
2026-05-04 08:41 39.56133 20.98599 36186 ft 375 kts 318°
2026-05-04 08:41 39.59890 20.93917 36188 ft 375 kts 318°
2026-05-04 08:42 39.63639 20.89253 36194 ft 375 kts 318°
2026-05-04 08:42 39.67393 20.84554 36203 ft 375 kts 318°
2026-05-04 08:43 39.71149 20.79832 36169 ft 376 kts 318°
2026-05-04 08:43 39.74894 20.75163 36174 ft 376 kts 318°
2026-05-04 08:44 39.78679 20.70452 36182 ft 377 kts 318°
2026-05-04 08:46 39.93842 20.51564 36181 ft 378 kts 318°
2026-05-04 08:46 39.97641 20.46820 36152 ft 379 kts 318°
2026-05-04 08:47 40.01450 20.42081 36163 ft 379 kts 318°
2026-05-04 08:47 40.05266 20.37346 36169 ft 379 kts 318°
2026-05-04 08:48 40.09079 20.32609 36169 ft 379 kts 318°
2026-05-04 08:48 40.12853 20.27928 36164 ft 379 kts 318°
2026-05-04 08:49 40.16683 20.23183 36173 ft 380 kts 318°
2026-05-04 08:50 40.29420 20.07289 36174 ft 380 kts 318°
2026-05-04 08:51 40.33241 20.02511 36179 ft 379 kts 318°
2026-05-04 08:51 40.37054 19.97746 36179 ft 379 kts 318°
2026-05-04 08:52 40.40872 19.92970 36181 ft 379 kts 318°
2026-05-04 08:52 40.44683 19.88201 36181 ft 379 kts 318°
2026-05-04 08:54 40.61593 19.72380 36172 ft 392 kts 347°
2026-05-04 08:55 40.66932 19.71112 36176 ft 393 kts 348°
2026-05-04 08:55 40.72329 19.69878 36176 ft 394 kts 348°
2026-05-04 09:01 41.28866 19.56423 36203 ft 395 kts 347°
2026-05-04 09:01 41.34267 19.55124 36207 ft 395 kts 348°
2026-05-04 09:02 41.39680 19.53817 36201 ft 396 kts 348°
2026-05-04 09:02 41.45105 19.52506 36201 ft 396 kts 348°
2026-05-04 09:03 41.50530 19.51196 36202 ft 397 kts 348°
2026-05-04 09:03 41.55964 19.49883 36206 ft 397 kts 348°
2026-05-04 09:04 41.61399 19.48559 36205 ft 397 kts 348°
2026-05-04 09:04 41.66838 19.47227 36202 ft 398 kts 348°
2026-05-04 09:05 41.72290 19.45907 36180 ft 398 kts 348°
2026-05-04 09:05 41.77733 19.44597 36193 ft 399 kts 348°
2026-05-04 09:06 41.83198 19.43263 36194 ft 399 kts 348°
2026-05-04 09:08 42.05036 19.37896 36203 ft 400 kts 348°
2026-05-04 09:08 42.10519 19.36554 36202 ft 400 kts 348°
2026-05-04 09:09 42.16001 19.35198 36204 ft 400 kts 348°
2026-05-04 09:09 42.21462 19.33723 36203 ft 400 kts 342°
2026-05-04 09:10 42.26451 19.30499 36198 ft 399 kts 328°
2026-05-04 09:10 42.31177 19.26537 36195 ft 400 kts 329°
2026-05-04 09:11 42.35905 19.22576 36195 ft 400 kts 329°
2026-05-04 09:11 42.40602 19.18623 36196 ft 401 kts 329°
2026-05-04 09:12 42.45339 19.14639 36192 ft 402 kts 329°
2026-05-04 09:14 42.64298 18.98621 36195 ft 402 kts 328°
2026-05-04 09:14 42.69036 18.94605 36185 ft 403 kts 328°
2026-05-04 09:15 42.73787 18.90564 36188 ft 403 kts 328°
2026-05-04 09:15 42.78527 18.86520 36188 ft 403 kts 328°
2026-05-04 09:17 42.99896 18.68229 36185 ft 404 kts 328°
2026-05-04 09:18 43.04651 18.64134 36183 ft 404 kts 328°
2026-05-04 09:18 43.09408 18.60033 36192 ft 404 kts 328°
2026-05-04 09:19 43.14170 18.55959 36171 ft 405 kts 332°
2026-05-04 09:19 43.19292 18.52730 36183 ft 405 kts 335°
2026-05-04 09:20 43.24440 18.49575 36187 ft 406 kts 335°
2026-05-04 09:20 43.29573 18.46336 36187 ft 406 kts 334°
2026-05-04 09:21 43.34685 18.43023 36181 ft 406 kts 334°
2026-05-04 09:21 43.39800 18.39712 36179 ft 407 kts 334°
2026-05-04 09:22 43.44897 18.36415 36183 ft 407 kts 334°
2026-05-04 09:22 43.50020 18.33113 36183 ft 407 kts 334°
2026-05-04 09:23 43.55143 18.29803 36183 ft 407 kts 334°
2026-05-04 09:23 43.60276 18.26486 36185 ft 408 kts 334°
2026-05-04 09:25 43.80795 18.13130 36193 ft 409 kts 334°
2026-05-04 09:26 43.85944 18.09767 36194 ft 409 kts 334°
2026-05-04 09:26 43.91098 18.06386 36190 ft 409 kts 334°
2026-05-04 09:27 43.96253 18.03003 36191 ft 410 kts 334°